Find Starlink 3679

NORAD ID: 51973 Int'l Des: 2022-025 Owner: SPXS Country: US Constellation: starlink operational
LEOCIRCULARSTARLINK_TYPE

Live Position

Loading 3D Globe...

About Starlink 3679

Description loading...

Upcoming Passes

Passes for default location (London). Set your location on the main map for personalized predictions.

Altitude History

Loading altitude history...

Two-Line Element Set

1 51973U 22025T 26125.51649870 .00063248 00000-0 20974-2 0 9999
2 51973 53.1624 132.7485 0000808 14.9533 345.1492 15.30691731229534
Epoch: May 5, 2026 • Age: 14 hours

Current Status

Altitude 485.2 km
Velocity 7.62 km/s
Sub-Earth Point -37.00°S, 162.38°W
Launch Date Mar 9, 2022
Age 4.1 years
Type internet

Technical Details

Classification Payload
Mass 297.00 kg
Dry Mass 275.00 kg
Total Mass 297.00 kg
Length 0.20 m
Diameter 2.80 m
Span 9.00 m
Shape Box + pan
Manufacturer SPXS
Bus Type Starlink
Phase Status In Orbit
Owner/State SPXS/US

Most Searched